Weather in Dubrovskoe

Russia / Vologda Oblast     59°20′31″N   39°48′44″E
temp.,
°C
wind,
m/s
gust,
m/s
humid.,
%
clouds,
%
prec.,
mm/h
press.,
hPa
HPBL,
m
16 september, thu
thu1600:00+4n488897 0.0 1014377
03:00+4nnw4978100 0.0 1015299
06:00+4nw4784100 0.0 1017255
09:00+5nw4779100 0.0 1017335
12:00+7nnw4567100 0.0 1018615
15:00+7nw4671100 0.1 1018645
18:00+6nw4877100 0.1 1018319
21:00+5nnw3777100 0.1 1019235
17 september, fri
fri1700:00+5nnw2580100 0.1 1019146
03:00+4nnw368486 0.1 1019193
06:00+2wnw3493100 0.0 102065
09:00+5nw477682 0.0 1020709
12:00+6nnw4578100 0.0 1020766
15:00+6nnw568698 0.2 1021654
18:00+6nnw358390 0.1 1022299
21:00+5nnw3688100 0.1 1023263
18 september, sat
sat1800:00+5nnw3791100 0.1 1024267
03:00+3n369582 0.1 1025216
06:00+4ne4884100 0.0 1026390
09:00+5ne46635 0.0 1027882
12:00+7nne445470 0.0 10281334
15:00+8nne445274 0.0 10271392
18:00+5ne366880 0.0 1028161
21:00+3nne347188 0.0 102874
19 september, sun
sun1900:00+2ene357677 0.0 1029114
03:000e2384100 0.0 102959
06:000nne118093 0.0 103011
09:00+4nne3463100 0.0 1029342
12:00+7ne345325 0.0 10291241
15:00+8ne555497 0.0 10281382
18:00+6ne5768100 0.0 1028573
21:00+2ne4978100 0.0 1029258
20 september, mon
mon2000:00+2ne3871100 0.0 1029201
03:00+3ene4866100 0.0 1029358
06:00+3ene497297 0.0 1030444
09:00+4ene586399 0.0 10301250
12:00+5ene6758100 0.0 10301337
15:00+5ene6857100 0.0 10301359
18:00+5ene5860100 0.0 10301031
21:00+3ene496940 0.0 1030571